User: anonymous   Login
Location: Nelson
(41.2830°S, 173.2830°E)
Time: 13:08:22
(UTC+13:00)
Language:

IRAS Rocket - Orbit

View from above orbital plane
View from above orbital plane
View from above satellite
View from above satellite

Ground track
Ground track

The orbit data is extracted from the following two-line orbital elements,

1 13778U 83004B   19295.21279140 -.00000057  00000-0 -17400-5 0  9994
2 13778 100.0347  28.1375 0021239  25.5464 334.6746 14.09009269887716
Epoch (UTC): 22 October 2019 05:06:25
Eccentricity: 0.0021239
inclination: 100.0347°
perigee height: 847 km
apogee height: 878 km
right ascension of ascending node: 28.1375°
argument of perigee: 25.5464°
revolutions per day: 14.09009269
mean anomaly at epoch: 334.6746°
orbit number at epoch: 88771

The dashed part of the orbit path shows where the satellite is in the earth's shadow,  

DLR